Total_Precipitation_Accumulation
0.67 0.71 0.56 0.58 0.53 0.31 0.31 0.18 0.09 0.07 0.06 0.03 0.03 0.10 0.16 0.26 0.25 0.19 0.13 0.08 0.19 0.23
0.65 0.78 0.71 0.53 0.46 0.49 0.35 0.35 0.14 0.08 0.07 0.06 0.02 0.05 0.14 0.20 0.20 0.17 0.15 0.15 0.11 0.12
0.58 0.69 0.85 0.67 0.48 0.37 0.43 0.48 0.41 0.13 0.07 0.07 0.03 0.02 0.08 0.18 0.20 0.15 0.15 0.10 0.14 0.13
0.46 0.61 0.72 0.94 0.71 0.47 0.38 0.43 0.54 0.41 0.16 0.10 0.05 0.04 0.05 0.07 0.12 0.22 0.18 0.14 0.08 0.11
0.69 0.51 0.65 0.70 0.88 0.67 0.49 0.51 0.45 0.58 0.39 0.17 0.08 0.04 0.05 0.05 0.04 0.12 0.18 0.17 0.12 0.08
0.82 0.88 0.68 0.73 0.69 0.74 0.67 0.63 0.71 0.55 0.56 0.38 0.17 0.07 0.06 0.04 0.03 0.06 0.11 0.13 0.12 0.08
0.80 0.86 0.99 0.88 0.84 0.82 0.77 0.78 0.75 0.79 0.62 0.51 0.34 0.16 0.10 0.11 0.07 0.08 0.12 0.15 0.14 0.11
0.67 0.71 0.73 0.85 0.83 0.83 0.84 0.86 0.89 0.83 0.75 0.70 0.53 0.29 0.14 0.13 0.16 0.13 0.16 0.15 0.16 0.14
0.52 0.54 0.58 0.64 0.74 0.75 0.76 0.80 0.86 0.97 0.94 0.80 0.78 0.69 0.43 0.24 0.15 0.14 0.13 0.17 0.16 0.16
0.53 0.54 0.59 0.61 0.60 0.64 0.70 0.73 0.75 0.82 0.93 0.99 0.92 1.01 0.86 0.52 0.28 0.20 0.15 0.16 0.18 0.16
0.43 0.50 0.55 0.57 0.59 0.63 0.65 0.67 0.71 0.70 0.73 0.85 1.00 1.17 1.08 0.90 0.54 0.35 0.27 0.23 0.25 0.24
0.37 0.41 0.45 0.48 0.57 0.61 0.65 0.67 0.72 0.77 0.74 0.76 0.90 1.04 0.97 0.87 0.94 0.74 0.49 0.35 0.30 0.29
0.32 0.35 0.38 0.45 0.50 0.56 0.59 0.69 0.75 0.77 0.86 0.81 0.79 0.88 0.81 0.70 0.92 0.99 0.80 0.56 0.35 0.29
0.20 0.28 0.33 0.37 0.41 0.47 0.52 0.57 0.60 0.62 0.64 0.67 0.81 0.86 0.74 0.62 0.68 0.68 0.71 0.67 0.52 0.34